Weather History for Roanoke, VA

Change the Weather History Date:

Friday, May 3, 2013

  Actual Average Record
Temperature  
Mean Temperature 59 °F 61 °F  
Max Temperature 67 °F 73 °F 93 °F (1959)
Min Temperature 50 °F 50 °F 32 °F (1981)
Degree Days  
Heating Degree Days 6 5  
Month to date heating degree days 10 16  
Since 1 July heating degree days 3893 4048  
Cooling Degree Days 0 1  
Month to date cooling degree days 0 3  
Year to date cooling degree days 43 32  
Growing Degree Days 8 (Base 50)    
Moisture  
Dew Point 45 °F    
Average Humidity 63    
Maximum Humidity 77    
Minimum Humidity 48    
Precipitation  
Precipitation 0.00 in 0.12 in 1.63 in (1972)
Month to date precipitation 0.02 0.34  
Year to date precipitation 15.65 12.98  
Snow  
Snow 0.00 in - - ()
Month to date snowfall 0.0  
Since 1 July snowfall 18.3  
Snow Depth 0.00 in    
Sea Level Pressure  
Sea Level Pressure 30.28 in    
Wind  
Wind Speed 7 mph (ESE)    
Max Wind Speed 22 mph    
Max Gust Speed 26 mph    
Visibility 10 miles    
Events      
T = Trace of Precipitation, MM = Missing Value Source: NWS Daily Summary

Daily Weather History Graph

Daily Weather History Graph

Search for Another Location

Airport:

Trip Planner

Search our weather history database for the weather conditions in past years. The results will help you decide how hot, cold, wet, or windy it might be!

Date:

Astronomy

May. 03, 2013 Rise Set
Actual Time 6:22 AM EDT 8:11 PM EDT
Civil Twilight 5:54 AM EDT 8:39 PM EDT
Nautical Twilight 5:20 AM EDT 9:14 PM EDT
Astronomical Twilight 4:43 AM EDT 9:50 PM EDT
Moon 2:37 AM EDT (5/3) 2:12 PM EDT (5/3)
Length of Visible Light 14h 45m
Length of Day
13h 49m
Last Quarter, 37% of the Moon is Illuminated
May 3
Last Quarter
May 9
New
May 18
First Quarter
May 25
Full
May 31
Last Quarter

Hourly Weather History & Observations

Time (EDT) Temp. Dew Point Humidity Pressure Visibility Wind Dir Wind Speed Gust Speed Precip Events Conditions
12:54 AM 54.0 °F 42.1 °F 64% 30.30 in 10.0 mi Calm Calm - N/A   Partly Cloudy
1:54 AM 52.0 °F 43.0 °F 71% 30.29 in 10.0 mi Calm Calm - N/A   Mostly Cloudy
2:54 AM 53.1 °F 44.1 °F 71% 30.27 in 10.0 mi Calm Calm - N/A   Clear
3:54 AM 52.0 °F 44.1 °F 74% 30.27 in 10.0 mi Calm Calm - N/A   Overcast
4:54 AM 51.1 °F 44.1 °F 77% 30.27 in 10.0 mi ENE 3.5 mph - N/A   Overcast
5:54 AM 51.1 °F 45.0 °F 80% 30.28 in 10.0 mi Calm Calm - N/A   Mostly Cloudy
6:54 AM 51.1 °F 44.1 °F 77% 30.29 in 10.0 mi Calm Calm - N/A   Overcast
7:54 AM 53.1 °F 45.0 °F 74% 30.30 in 10.0 mi Calm Calm - N/A   Overcast
8:54 AM 54.0 °F 46.0 °F 75% 30.31 in 10.0 mi Variable 3.5 mph - N/A   Overcast
9:30 AM 57.2 °F 46.4 °F 67% 30.33 in 10.0 mi ESE 8.1 mph - N/A   Scattered Clouds
9:54 AM 57.0 °F 45.0 °F 64% 30.32 in 10.0 mi ESE 9.2 mph 18.4 mph N/A   Mostly Cloudy
10:27 AM 57.2 °F 46.4 °F 67% 30.34 in 10.0 mi ESE 12.7 mph 20.7 mph N/A   Mostly Cloudy
10:54 AM 57.9 °F 46.0 °F 65% 30.34 in 10.0 mi SE 13.8 mph - N/A   Mostly Cloudy
11:54 AM 59.0 °F 43.0 °F 55% 30.34 in 10.0 mi East 9.2 mph 20.7 mph N/A   Mostly Cloudy
12:54 PM 60.1 °F 44.1 °F 55% 30.32 in 10.0 mi ESE 6.9 mph - N/A   Overcast
1:54 PM 64.0 °F 45.0 °F 50% 30.29 in 10.0 mi ESE 16.1 mph 20.7 mph N/A   Mostly Cloudy
2:54 PM 64.9 °F 44.1 °F 47% 30.27 in 10.0 mi ESE 11.5 mph 23.0 mph N/A   Mostly Cloudy
3:54 PM 64.9 °F 45.0 °F 48% 30.25 in 10.0 mi ESE 11.5 mph - N/A   Mostly Cloudy
4:54 PM 63.0 °F 46.0 °F 54% 30.24 in 10.0 mi SE 12.7 mph - N/A   Overcast
5:54 PM 63.0 °F 46.9 °F 56% 30.24 in 10.0 mi ESE 9.2 mph - N/A   Mostly Cloudy
6:54 PM 63.0 °F 46.9 °F 56% 30.23 in 10.0 mi East 6.9 mph - N/A   Scattered Clouds
7:54 PM 62.1 °F 46.9 °F 58% 30.22 in 10.0 mi East 5.8 mph - N/A   Overcast
8:54 PM 61.0 °F 46.0 °F 58% 30.22 in 10.0 mi ENE 6.9 mph - N/A   Partly Cloudy
9:54 PM 60.1 °F 43.0 °F 53% 30.25 in 10.0 mi East 13.8 mph - N/A   Partly Cloudy
10:54 PM 55.9 °F 37.0 °F 49% 30.26 in 10.0 mi East 12.7 mph 19.6 mph N/A   Partly Cloudy
11:54 PM 54.0 °F 39.9 °F 59% 30.26 in 10.0 mi ESE 12.7 mph - N/A   Scattered Clouds